Regional Weather Roundup
Issued by NWS Charleston, WV

Home | Current Version | Previous Version | Graphics & Text | Print | Product List | Glossary On
Versions: 1 2 3 4 5 6 7 8 9 10 11 12 13 14 15 16 17 18 19 20 21 22 23 24 25 26 27 28 29 30 31 32 33 34 35 36 37 38 39 40 41 42 43 44 45 46 47 48 49 50
000
ASUS41 KRLX 270610
RWRRLX
West Virginia Regional Weather Roundup
National Weather Service Charleston WV
200 AM EDT WED MAY 27 2015

Note: "fair" indicates few or no clouds below 12,000 feet with no
significant weather and/or obstructions to visibility.

WVZ003-270700-
Northern Panhandle of West Virginia

CITY           SKY/WX    TMP DP  RH WIND       PRES   REMARKS
WHEELING       NOT AVBL
$$

WVZ009-270700-
Northwest West Virginia

CITY           SKY/WX    TMP DP  RH WIND       PRES   REMARKS
PARKERSBURG    LGT RAIN  67  65  93 S6        30.15R
$$

WVZ006-270700-
Western West Virginia

CITY           SKY/WX    TMP DP  RH WIND       PRES   REMARKS
HUNTINGTON     CLOUDY    65  64  97 S6        30.11S
$$

WVZ015-270700-
West Central West Virginia

CITY           SKY/WX    TMP DP  RH WIND       PRES   REMARKS
CHARLESTON     LGT RAIN  67  66  97 SE3       30.12F
$$

WVZ022-031-270700-
North Central West Virginia

CITY           SKY/WX    TMP DP  RH WIND       PRES   REMARKS
CLARKSBURG     CLOUDY    72  63  73 W7        30.13
MORGANTOWN     CLOUDY    74  59  59 S3        30.13R
$$

WVZ025-035-042-045-270700-
Southern West Virginia

CITY           SKY/WX    TMP DP  RH WIND       PRES   REMARKS
BECKLEY        CLOUDY    69  60  73 S7        30.20F
LOGAN            N/A     70  64  83 CALM      30.12S
BLUEFIELD      LGT RAIN  71  60  68 SW6       30.23F
LEWISBURG      MOCLDY    65  62  89 CALM      30.22S
$$

WVZ047-270700-
Northern Mountains of West Virginia

CITY           SKY/WX    TMP DP  RH WIND       PRES   REMARKS
ELKINS         MOCLDY    70  59  68 S6        30.17S
$$

WVZ052-270700-
Eastern Panhandle of West Virginia

CITY           SKY/WX    TMP DP  RH WIND       PRES   REMARKS
MARTINSBURG    CLEAR     68  67  96 CALM      30.14S FOG
PETERSBURG     PTCLDY    70  62  77 SE7       30.14F
$$


USA.gov is the U.S. government's official web portal to all federal, state and local government web resources and services.